印度国家卫星-2B星 (INSAT-2B)

导读 | 豆包AI

INSAT 2B是印度(IN)于1993年7月22日发射的多用途通信卫星,是印度国家卫星系统INSAT - 2系列的第二颗卫星,由欧洲阿里安火箭送入太空。它与INSAT - 2A性能相近,承担通信、气象观测与电视广播等任务,为印度及周边区域提供稳定服务,长期在轨服役,推动了印度航天通信与气象监测领域发展,是印度第二代通信卫星体系的重要组成部分。

Basic Information
目录编号:
22724
目录名称:
INSAT 2B
国际标识:
1993-048B
轨道中心:
EARTH
卫星名称:
印度国家卫星-2B星
卫星全名:
印度国家卫星-2B星 (INSAT-2B)
卫星状态:
在轨 (已飞行11971 天)
发射日期:
1993-07-22 UTC
国别 :
印度 (IN)
星等 :
--
Orbit Information
数据来源 国际轨道数据 AOE轨道数据
星历时间 2026-04-30T07:34:36+0800
1天前
查看轨道信息
2026-05-01T04:00:00+0800
12小时前
查看轨道信息
半长轴 42245.067km 42244.955km
偏心率 0.0015023 0.0014908
轨道倾角 14.438° 14.438°
近地点辐角 225.243° 224.731°
升交点赤经 2.960° 2.953°
平近点角 316.330° 263.163°
近地点 35803.465km 35803.839km
远地点 35930.395km 35929.797km
周期 1440.203分钟 1440.197分钟
每日圈数 0.999859 0.999863
Detailed Information
平衡模式:
三轴稳定
覆盖范围:
全球
运营商:
印度空间研究组织
运营商所在国:
印度
制造商(研发单位):
印度空间研究组织
制造商所在国:
印度
使用方式:
暂无
Satellite Introduction
印度先后发展了“印度卫星”(INSAT)和“地球静止卫星”(GSAT)两大静止轨道通信卫星系列,共发射卫星28颗,其中INSAT系列的前4颗向美国购买,后续卫星均由ISRO研制。在自行研制的24颗通信卫星中,有19颗发射成功,3颗发射失败,2颗发射部分失败。该卫星已退役。
2D Orbit Map
3D Orbit Map
Orbit Altitude Analysis Chart
Orbit Inclination Analysis Chart
Orbit Comprehensive Analysis Chart
View Comprehensive Chart